User: anonymous   Login
Location: LDNL
(36.4545°S, 141.6685°E)
Time: 02:36:16
(UTC+10:00)
Language:

CUTE 1.7 + AOD 2 - Orbit

View from above orbital plane
View from above orbital plane
View from above satellite
View from above satellite

Ground track
Ground track

The orbit data is extracted from the following two-line orbital elements,

1 32785U 08021C   22137.19331609  .00003280  00000-0  34986-3 0  9999
2 32785  97.6554 109.0392 0012198 345.5744  14.5124 14.89462311761909
Epoch (UTC): 17 May 2022 04:38:22
Eccentricity: 0.0012198
inclination: 97.6554°
perigee height: 591 km
apogee height: 608 km
right ascension of ascending node: 109.0392°
argument of perigee: 345.5744°
revolutions per day: 14.89462311
mean anomaly at epoch: 14.5124°
orbit number at epoch: 76190

The dashed part of the orbit path shows where the satellite is in the earth's shadow,  

DLR